Wind_Speed
32 33 34 34 34 33 32 31 31 30 29 29 29 29 27 26 25 24 24 24 23 23 22 20 18 17 16 17 18 18 19 19 20 22 23 24 24 23 23 23 22 20 19 19 18 17 17 15 14 14 13 12 11 11 11 10 10 9 9 9 10 10 11 12 11 8 9 12 13 13 14 15 14 13 15 16 16 18 19 19 20 22 23 23 24
31 32 34 34 34 33 33 32 32 31 31 30 30 30 29 28 26 26 25 24 24 23 22 21 19 18 17 16 17 18 18 19 20 21 22 24 24 24 24 24 23 23 22 21 20 19 19 17 16 16 16 15 14 14 14 13 13 12 12 12 13 13 14 16 16 14 12 13 15 16 16 18 17 17 18 19 20 21 22 23 24 25 26 27 27
30 31 32 33 34 34 34 33 33 33 32 32 31 30 30 29 28 27 26 25 25 24 23 22 20 19 18 17 17 17 18 19 20 21 22 22 23 24 24 24 24 24 24 23 22 22 21 19 18 18 19 18 17 16 16 16 16 16 16 16 16 17 18 19 20 19 17 15 16 18 19 20 21 21 22 23 24 25 26 27 28 29 30 31 32
30 30 31 32 34 35 34 34 34 34 33 33 32 31 31 30 29 28 27 27 26 25 24 23 22 20 19 18 17 17 17 18 20 21 21 22 23 23 23 23 23 24 24 24 24 24 22 21 20 21 21 20 19 19 19 19 19 19 19 19 20 20 21 22 22 23 23 21 19 20 21 22 23 23 24 26 27 29 30 31 32 33 34 35 36
30 30 30 31 33 34 35 35 35 34 34 33 32 32 32 31 31 30 29 28 27 26 25 24 23 22 20 18 17 17 17 17 19 20 20 21 22 23 23 23 22 21 22 23 24 24 23 22 22 22 21 21 19 19 19 20 20 21 21 21 22 23 24 25 25 26 27 26 24 23 24 25 26 26 27 29 31 33 33 34 35 37 38 39 41
31 30 30 31 32 33 35 35 35 34 33 33 33 33 33 32 31 31 30 29 28 27 26 25 24 22 20 19 18 18 17 18 18 19 19 20 22 23 23 23 21 20 19 20 21 21 21 20 19 19 18 17 16 16 17 18 19 19 20 21 22 24 25 26 27 29 29 29 28 27 27 28 30 30 30 32 34 36 36 37 38 39 40 41 42
32 31 30 30 30 32 34 34 34 33 33 33 33 33 33 33 32 31 30 30 29 28 27 26 25 23 22 21 20 19 19 19 18 18 19 20 21 22 22 22 20 19 18 18 18 17 17 16 16 15 15 14 14 14 16 17 19 20 20 21 23 24 26 27 29 31 32 32 31 31 30 31 32 32 33 33 35 36 36 37 37 37 37 38 38
33 31 30 30 29 29 31 33 33 33 33 33 33 33 33 33 32 32 31 31 30 29 28 27 26 25 24 23 22 21 21 20 20 19 19 20 20 20 20 20 19 18 18 17 17 16 15 15 15 15 15 15 15 16 17 19 20 21 21 22 24 25 26 28 29 31 32 33 33 32 32 32 32 32 32 32 33 33 34 36 35 34 35 35 35
33 33 32 30 28 28 28 30 32 33 33 34 34 34 33 33 32 32 31 31 30 30 29 28 27 27 26 25 24 24 23 22 21 20 20 20 20 20 20 20 19 19 19 19 18 18 17 17 17 17 16 17 17 17 18 19 21 22 23 24 26 26 27 28 29 30 31 32 33 33 32 31 30 29 29 30 31 32 32 34 36 35 34 35 36
32 33 33 31 30 29 28 28 30 31 32 33 33 33 33 33 32 32 31 31 31 30 30 29 28 28 28 27 27 26 25 23 22 21 21 21 21 22 22 22 21 21 21 21 21 20 20 19 19 18 18 18 18 19 19 21 23 24 24 25 26 27 27 27 28 29 30 30 32 32 30 27 25 26 27 28 30 32 32 34 36 35 35 37 38
29 31 32 32 32 31 29 28 29 29 30 31 31 31 32 32 31 31 31 31 31 30 30 30 29 29 29 29 28 27 26 24 23 23 23 23 23 24 24 24 24 24 23 23 22 21 21 20 20 20 20 20 20 20 21 23 24 25 25 25 26 26 25 25 25 26 27 28 28 28 27 25 24 25 26 26 28 30 32 34 35 35 36 38 40
25 25 27 30 32 32 30 29 28 28 29 29 29 30 30 30 30 30 30 30 30 30 30 30 30 29 29 29 29 28 26 25 24 24 24 24 25 26 26 26 26 26 24 24 23 22 22 21 21 21 21 21 21 22 23 23 23 23 22 22 23 23 23 22 22 23 25 26 25 24 25 26 27 26 25 27 30 33 35 36 36 37 38 40 41
23 22 22 24 27 28 28 28 27 27 27 27 28 28 28 29 29 29 29 29 29 30 30 30 30 30 30 29 28 28 27 26 26 25 25 25 26 27 28 28 28 27 26 25 24 23 23 22 23 22 21 21 22 22 22 21 19 18 17 18 19 21 22 23 23 24 25 26 27 25 25 26 28 28 27 30 33 37 39 39 38 39 39 38 39
26 23 21 21 22 23 23 24 24 25 25 26 26 27 27 27 27 28 28 28 29 30 30 30 30 30 30 29 28 28 27 26 27 27 27 26 27 28 28 29 29 28 27 26 25 24 24 24 24 23 22 22 22 22 21 19 18 18 18 18 20 22 25 26 27 27 27 28 29 28 25 25 27 30 32 34 36 38 40 40 40 41 39 37 37
30 28 26 24 23 22 21 21 21 22 23 24 25 26 27 27 27 27 27 28 28 29 29 29 29 29 29 28 28 28 27 26 26 27 28 28 29 29 29 30 30 29 28 27 26 26 25 25 25 24 23 23 22 22 22 22 22 22 21 20 22 25 27 28 29 30 30 29 29 28 25 23 27 32 35 37 38 38 39 39 40 41 40 39 39
31 31 30 29 27 26 24 23 22 21 21 22 24 25 26 26 26 26 27 27 27 28 28 28 28 28 28 28 28 27 26 26 26 27 28 29 30 31 31 31 31 31 30 28 27 27 27 26 26 24 24 24 23 23 24 25 26 26 24 22 23 26 28 29 29 30 30 29 29 29 26 25 30 35 35 34 35 37 37 37 37 40 42 42 43
29 31 33 32 31 29 29 28 27 25 24 23 23 23 23 23 24 24 25 25 25 25 25 25 25 25 26 27 27 26 25 25 26 27 28 29 31 32 32 32 32 32 31 30 29 28 28 27 26 26 25 24 24 25 27 28 28 28 27 24 24 27 29 30 29 29 28 26 26 27 27 29 33 33 31 31 34 36 37 37 36 39 41 44 47
29 32 33 33 32 32 31 31 31 30 29 27 26 25 23 23 22 23 23 24 23 23 23 23 23 24 25 26 26 25 24 25 26 27 28 29 30 31 32 32 33 32 31 30 29 29 28 27 27 27 27 25 25 26 28 29 29 29 29 27 26 27 29 31 32 30 26 24 25 28 29 29 30 29 28 30 33 35 36 36 36 39 41 45 50
30 31 32 32 33 33 33 33 33 32 31 30 30 29 28 26 25 25 25 24 24 23 23 23 23 23 23 24 24 24 24 24 26 27 28 29 30 31 32 32 33 32 31 30 30 29 29 28 28 29 29 28 27 28 29 30 29 30 31 31 29 29 31 33 31 28 26 26 28 30 28 26 26 26 25 27 30 32 33 34 36 40 44 47 51
29 30 30 31 31 32 32 32 32 32 32 32 32 31 31 30 30 29 28 27 26 25 25 24 24 23 23 23 22 23 23 23 25 26 28 29 30 31 32 33 32 32 31 31 31 30 30 30 30 31 31 30 30 30 30 30 31 32 34 35 33 33 33 31 27 26 28 28 27 27 26 26 26 25 23 24 26 28 30 33 37 41 45 49 52
28 29 29 29 29 28 28 29 29 30 31 31 32 32 32 32 31 31 30 30 29 28 27 27 26 25 24 24 23 23 23 23 24 26 28 29 31 32 33 33 32 32 32 32 32 32 32 31 31 32 33 33 32 31 31 32 33 34 37 38 38 38 35 29 25 24 24 24 25 27 28 27 25 23 23 24 25 27 31 35 39 43 46 49 52
28 27 26 26 25 25 25 25 26 27 28 29 30 30 31 31 31 31 31 31 30 30 30 29 28 27 26 26 25 24 24 24 25 26 27 29 30 32 33 33 32 33 33 34 33 33 33 33 33 34 34 34 34 33 33 34 35 37 40 40 41 40 34 25 20 20 21 25 28 29 27 25 22 22 22 24 26 29 32 36 40 44 47 49 52
27 26 25 23 22 21 21 22 24 25 26 28 29 29 30 30 30 31 31 31 31 31 31 31 31 30 29 29 28 27 26 26 26 27 27 29 30 32 33 33 33 34 35 34 34 34 34 34 35 35 35 36 36 35 35 36 38 40 42 42 41 41 38 31 26 25 25 25 24 22 21 20 20 20 22 24 27 30 33 36 40 44 47 49 52
27 24 21 18 17 17 18 19 21 22 24 26 28 29 30 30 31 31 31 31 31 31 32 32 32 32 31 31 31 30 30 29 28 28 28 29 30 32 33 34 34 35 35 35 35 36 36 36 36 36 36 37 37 36 37 38 40 42 43 43 41 39 39 38 35 30 25 20 17 17 18 19 20 20 22 25 29 32 35 38 41 45 48 51 52
24 20 18 16 15 15 17 18 18 19 21 22 24 26 27 27 28 28 28 29 29 30 30 30 31 31 31 31 32 32 32 32 32 32 31 31 31 32 33 35 36 36 37 37 37 37 37 37 37 37 38 38 38 38 39 41 42 43 43 44 40 35 35 37 35 30 25 20 19 19 19 20 21 23 24 27 31 35 38 40 43 46 50 52 53
21 18 17 16 16 15 16 17 17 17 18 18 19 21 22 23 24 24 25 25 25 25 25 26 26 26 27 27 28 29 30 32 33 34 34 34 34 34 34 35 36 37 38 38 38 38 38 38 38 38 39 39 39 40 41 42 43 44 45 45 41 38 39 39 34 28 25 23 22 22 22 23 24 25 28 30 34 38 41 44 46 48 51 53 53
23 19 18 18 16 14 15 16 15 14 14 14 14 16 18 19 20 21 21 21 20 20 20 20 20 20 20 21 22 23 24 25 27 30 32 34 36 37 38 38 38 38 39 38 39 39 39 40 40 40 41 41 41 42 43 43 44 44 44 43 41 39 39 37 32 29 27 26 26 25 26 27 27 29 31 34 37 41 44 47 50 52 53 54 53
21 21 21 21 18 16 18 19 17 15 15 14 14 14 13 14 16 17 18 18 18 18 17 17 17 16 17 18 19 19 19 19 21 24 26 29 32 34 36 39 40 40 41 41 41 42 41 41 42 42 42 42 42 43 43 43 42 42 41 40 38 37 35 33 31 30 29 28 28 29 29 30 31 33 35 37 41 44 47 50 52 54 55 54 53
23 23 23 21 19 18 19 20 19 19 18 17 16 15 14 14 15 16 17 17 17 17 17 17 16 17 18 18 19 19 19 18 20 22 23 25 26 28 30 33 36 38 40 42 43 44 44 44 44 44 43 43 43 43 42 41 41 40 38 38 37 35 33 31 30 29 28 29 30 31 31 32 33 36 38 40 43 46 49 51 53 54 54 53 51
25 24 23 22 21 21 21 20 20 20 20 20 19 20 22 22 20 19 20 20 20 20 20 19 19 20 20 20 20 20 20 20 21 23 23 23 24 26 27 30 32 35 37 39 41 42 42 43 43 43 43 43 41 38 37 37 37 37 35 35 34 33 31 29 28 28 29 30 31 31 32 33 35 38 40 42 44 47 49 51 53 53 52 51 50
24 24 23 22 22 21 21 21 22 22 23 23 23 23 25 27 26 24 23 23 23 23 24 23 23 24 23 23 23 23 23 23 24 25 26 26 26 27 28 29 31 33 35 37 37 37 37 38 38 39 39 38 35 32 33 34 35 34 33 32 30 29 28 27 27 28 29 30 31 32 33 35 37 40 41 43 45 47 49 51 51 51 49 49 49
22 21 21 20 20 21 22 23 25 26 27 28 28 27 27 28 28 28 27 26 26 26 27 27 27 27 26 26 25 25 26 27 28 29 29 30 30 31 31 31 31 32 33 34 34 33 32 32 33 33 34 33 31 31 31 32 32 30 29 28 27 27 26 26 27 28 29 30 31 32 34 36 39 41 43 44 46 48 49 50 50 49 47 46 46
19 18 18 19 21 23 24 25 26 27 27 27 27 26 27 27 28 28 28 29 29 29 29 29 29 29 28 27 27 27 28 28 29 30 31 32 33 33 33 32 32 31 30 29 29 28 28 28 29 29 29 29 29 28 27 27 27 26 26 26 26 26 26 27 28 28 29 30 32 33 35 37 39 41 43 45 46 48 49 49 48 47 46 44 44
19 19 19 21 23 24 26 27 27 26 25 25 24 24 25 25 26 27 28 29 30 30 30 30 29 29 28 28 28 28 29 29 30 30 32 33 33 32 31 31 30 27 23 20 20 22 24 24 25 26 27 27 26 25 26 27 27 26 26 27 26 26 27 27 28 29 30 31 32 34 36 37 39 41 43 44 46 47 47 47 46 45 44 43 43
20 19 17 18 20 22 24 26 26 26 25 25 25 25 25 24 25 26 27 28 29 30 30 30 29 29 28 28 28 29 29 30 30 31 31 31 31 30 29 27 24 19 15 16 17 19 21 23 23 24 25 26 26 25 26 28 27 26 26 27 27 27 28 28 29 29 31 32 33 35 36 38 39 41 43 44 45 46 46 45 44 43 42 42 42
22 19 14 12 14 17 21 23 25 26 26 26 26 26 25 24 24 25 26 27 28 29 30 30 29 29 28 29 29 30 30 30 30 31 31 30 29 27 24 20 17 15 16 20 23 23 24 24 25 24 25 26 26 25 25 25 25 25 26 27 27 28 28 28 29 30 31 32 33 35 36 38 39 41 42 43 44 45 44 43 42 41 41 41 41
23 19 14 11 11 14 17 20 23 25 26 26 26 25 24 24 24 24 25 26 27 28 30 29 29 28 28 28 28 29 29 29 30 30 30 28 26 23 19 16 18 20 21 22 25 27 27 27 26 25 26 26 25 25 25 25 25 25 26 27 27 28 28 29 30 31 31 32 33 35 36 38 39 40 41 41 42 42 42 41 40 39 39 39 39
20 16 13 12 12 13 15 18 20 22 24 24 24 24 24 23 23 23 24 25 26 28 28 28 27 27 27 26 26 26 25 25 26 26 26 26 25 22 18 17 20 23 22 22 25 27 29 28 27 27 28 27 25 25 25 24 25 26 27 27 28 28 29 29 30 31 31 32 34 35 36 38 39 40 40 40 40 40 40 39 39 38 38 38 38
16 14 12 12 13 13 14 16 18 20 21 22 23 23 22 22 22 22 23 24 25 25 24 24 24 24 24 24 24 23 23 24 24 24 23 24 24 23 21 21 22 24 24 23 23 24 25 26 27 28 28 26 25 25 24 24 25 26 27 27 27 28 29 29 30 31 32 33 34 35 36 37 38 39 39 38 37 37 37 37 37 37 38 38 37
15 14 14 14 14 14 14 15 15 17 18 18 19 20 20 21 21 21 21 22 23 22 21 21 20 20 20 20 20 20 22 26 27 27 26 26 26 25 24 24 24 25 26 25 25 24 24 25 26 27 26 25 25 24 24 25 26 27 27 27 28 28 29 30 30 31 32 33 34 35 36 36 36 36 36 35 35 35 34 34 35 36 36 36 36
15 15 15 16 16 16 16 15 15 15 15 15 15 16 17 18 19 20 20 21 20 20 20 20 19 19 20 20 19 18 19 23 27 29 30 29 27 26 25 24 24 25 27 27 26 25 25 24 24 25 24 24 24 24 25 25 26 27 28 28 28 29 29 30 30 31 32 33 33 34 34 35 34 33 32 32 32 32 32 32 33 34 35 35 35
16 15 15 16 17 17 18 17 17 16 16 15 15 14 15 16 17 18 19 19 18 17 20 22 22 22 22 21 18 16 17 19 23 26 27 27 27 27 27 26 26 26 27 27 27 26 25 24 23 23 23 23 23 24 25 25 26 27 28 28 29 29 30 30 31 31 32 32 33 33 33 32 32 31 30 30 30 30 30 30 32 33 33 33 34
17 16 16 16 17 17 18 18 18 18 17 16 16 15 15 15 16 18 19 19 18 18 20 22 23 22 22 22 21 20 21 22 24 26 27 27 26 26 27 27 27 27 27 27 26 25 24 23 22 22 22 23 23 24 25 26 27 27 28 29 29 30 30 31 31 32 32 32 32 31 31 30 29 28 28 29 29 29 29 29 31 32 31 32 34
17 17 17 16 17 18 18 19 19 19 18 17 16 16 15 16 17 17 18 19 19 18 20 22 24 25 26 26 25 23 22 22 25 27 28 28 28 28 28 28 28 27 27 26 26 25 24 24 23 23 23 23 24 25 26 26 27 28 29 30 30 31 31 32 32 32 32 31 31 30 29 28 27 27 28 28 29 29 28 29 30 30 31 32 34
17 18 18 18 18 18 20 20 21 21 21 20 19 17 17 17 17 16 18 20 20 18 20 23 25 25 25 26 26 26 26 26 26 26 26 25 25 26 26 27 28 28 27 27 26 25 24 23 23 23 23 24 25 26 26 27 28 29 29 30 31 32 32 33 32 31 30 29 29 28 27 26 26 27 28 28 29 29 28 28 29 30 31 32 34
20 19 19 19 19 20 21 22 23 24 23 22 20 18 18 18 17 16 19 24 24 23 24 26 27 27 26 26 28 30 31 31 30 28 26 25 26 26 25 25 26 26 26 25 24 24 23 23 23 24 24 25 26 26 27 28 28 29 29 30 31 32 32 32 31 31 29 28 27 26 26 26 26 27 28 29 29 29 28 28 30 31 31 32 33
24 23 21 20 19 20 22 23 25 25 25 24 21 17 15 16 16 16 21 26 28 25 24 26 29 31 31 30 29 30 31 32 32 32 31 30 30 29 27 26 25 25 24 23 23 23 23 24 24 25 25 26 26 27 27 28 28 29 30 30 30 30 30 30 30 29 28 27 26 25 25 25 25 26 28 29 28 26 26 28 30 31 32 32 32
30 28 25 22 21 21 23 24 24 25 24 22 19 15 12 13 14 17 22 28 30 29 27 27 29 31 32 32 31 32 32 33 34 33 33 32 30 28 27 26 25 24 23 23 23 23 24 24 25 25 26 26 27 27 27 28 29 29 29 29 29 29 29 28 28 27 26 25 25 25 25 25 26 27 28 27 25 25 28 31 31 32 32 32 31
32 31 28 25 22 22 23 24 25 24 22 18 14 12 11 11 12 16 21 26 30 33 34 33 31 30 30 32 34 35 35 35 35 33 32 31 29 27 26 25 24 24 24 24 24 24 25 25 25 26 26 27 27 28 28 28 28 29 29 29 29 28 28 27 26 25 25 25 25 25 25 25 26 26 26 26 26 28 30 32 32 32 32 31 31
32 32 31 28 25 23 23 23 23 22 20 16 12 10 11 11 11 15 21 26 29 33 35 35 33 31 29 29 30 31 32 33 32 31 30 28 26 25 24 24 24 24 24 24 24 25 25 25 26 26 27 27 28 28 28 28 28 28 28 28 28 27 27 26 25 25 25 25 25 25 24 24 24 25 26 27 29 31 32 33 32 32 32 31 31
27 27 28 27 26 25 23 22 19 17 16 15 12 12 13 15 16 20 26 30 31 32 33 33 33 32 32 30 29 30 31 30 28 28 27 25 24 23 23 22 23 24 24 25 25 25 25 25 25 26 26 27 27 28 28 28 28 27 26 26 25 25 25 25 25 25 25 26 25 25 25 25 25 26 28 29 30 31 32 33 32 32 32 32 32
Wind_Direction
223 221 221 219 218 217 216 216 215 215 215 214 213 212 212 212 212 214 215 218 222 225 228 229 230 230 230 231 232 231 230 228 226 225 224 223 224 224 225 225 224 224 225 226 228 229 230 232 235 240 245 247 250 254 256 259 261 262 265 267 269 273 275 274 266 249 249 264 270 273 279 282 282 284 285 286 288 290 293 295 296 298 299 300 301
224 223 222 221 220 218 218 217 217 217 216 216 214 213 212 212 213 214 216 218 222 225 228 229 230 230 230 231 231 231 229 227 226 224 223 223 225 225 226 227 226 224 225 227 230 231 233 234 237 242 246 249 253 258 260 262 263 263 264 265 267 271 274 275 272 263 247 248 260 267 272 276 277 279 281 284 286 288 291 293 294 296 297 297 297
227 226 224 223 222 220 219 218 218 218 218 217 216 214 214 214 214 216 217 219 222 225 227 229 231 231 230 229 230 230 228 225 223 222 221 222 223 225 226 227 228 226 225 226 229 232 234 235 238 242 246 248 251 256 260 263 265 265 266 267 268 271 273 273 274 272 262 250 252 259 264 269 274 277 280 284 286 288 291 293 294 295 296 296 296
228 228 227 225 223 222 221 219 219 219 220 219 218 217 216 216 216 217 218 220 222 225 227 229 230 230 229 227 228 230 228 224 221 220 220 219 220 223 225 226 228 227 225 225 228 232 235 236 239 244 247 249 252 256 260 263 264 265 266 268 271 272 272 272 273 273 270 264 260 261 264 267 271 274 278 281 284 287 289 291 293 294 294 295 295
227 228 228 226 224 223 223 221 220 220 221 222 221 219 219 218 218 219 220 222 223 225 227 228 230 230 229 228 228 229 228 226 223 221 219 218 218 220 223 225 226 225 224 225 228 232 236 238 242 246 249 251 254 257 260 262 264 266 267 268 270 272 272 272 272 271 272 270 268 268 271 273 274 275 278 281 284 286 288 290 292 293 294 295 296
225 227 227 226 225 224 224 223 222 221 222 223 223 223 222 221 221 221 222 224 225 226 228 229 230 230 229 227 227 227 227 226 225 222 218 216 216 217 220 223 224 224 223 224 227 231 235 237 240 244 247 249 251 256 260 264 267 269 270 271 272 273 273 273 272 272 272 273 273 274 275 277 279 280 282 284 286 288 290 291 292 293 295 295 296
223 227 227 227 226 225 225 225 225 224 224 224 225 225 225 224 224 223 224 226 227 228 230 231 231 231 229 227 226 226 227 226 225 223 217 213 213 214 217 220 222 223 222 222 224 227 228 230 233 238 244 248 252 256 261 266 269 271 273 275 275 276 276 275 274 275 277 278 279 280 280 281 282 284 287 288 290 292 295 295 296 297 297 295 295
221 225 227 228 226 225 225 226 226 226 226 226 226 227 227 227 226 226 226 227 229 231 232 233 232 232 231 228 227 226 226 225 225 222 217 212 210 212 214 216 217 215 214 215 218 221 224 229 234 240 246 250 254 257 261 265 268 271 274 275 277 277 278 278 278 279 281 283 285 286 287 288 289 292 294 296 299 302 303 302 302 301 300 298 298
220 222 226 229 228 226 226 226 226 227 227 227 228 228 229 229 229 229 228 229 231 232 234 234 233 233 232 230 228 227 227 226 225 223 218 213 210 211 211 212 211 209 210 214 219 223 228 233 238 243 246 249 252 255 260 264 267 270 273 274 277 278 279 281 281 282 284 286 288 290 291 292 296 299 302 305 308 309 309 306 304 304 303 301 300
219 221 225 227 228 228 229 228 227 227 228 228 229 230 231 231 232 231 231 231 232 234 235 236 235 234 234 233 231 230 229 228 226 223 221 216 213 213 212 211 212 213 215 220 224 227 231 235 239 243 247 251 255 258 262 264 267 270 272 274 276 277 278 279 281 283 283 284 287 289 292 297 304 308 312 315 314 310 306 301 297 298 297 294 294
217 221 224 225 227 228 230 229 228 227 227 228 229 230 231 232 233 233 233 233 234 235 236 237 237 237 237 236 236 234 232 230 227 225 223 220 217 217 216 215 217 219 222 225 227 230 233 237 242 248 253 258 262 264 266 268 270 271 272 273 274 275 276 277 279 281 282 284 287 291 297 306 312 315 319 316 307 300 295 291 290 289 289 289 291
212 214 216 219 222 224 226 226 225 224 225 226 227 228 229 231 232 232 233 233 234 235 237 238 239 239 239 239 239 239 237 233 229 227 225 223 221 221 220 220 221 224 226 229 230 232 236 241 247 253 259 263 265 267 269 270 271 270 269 268 269 272 275 279 282 283 285 288 292 298 306 311 312 314 312 304 296 290 287 287 288 287 286 288 292
204 202 202 206 212 216 218 220 220 220 221 223 224 226 227 228 229 229 231 232 233 235 236 238 239 240 241 241 241 241 240 236 232 230 228 226 225 225 225 225 226 228 230 231 233 236 240 246 252 258 263 265 266 268 270 268 265 263 264 266 268 271 275 279 283 286 290 296 302 309 312 308 304 301 295 288 287 287 288 291 292 290 291 293 297
204 201 198 197 199 204 208 212 215 217 218 220 221 223 224 225 226 227 228 229 231 232 235 237 238 240 242 243 243 243 242 238 235 233 231 229 229 229 229 230 230 232 233 234 237 241 246 251 256 261 264 264 265 266 265 261 259 260 263 268 273 276 277 280 285 292 299 304 309 313 309 302 298 293 286 281 282 284 286 290 292 292 295 298 302
206 205 204 203 201 201 203 205 208 211 213 216 219 221 222 223 224 225 226 228 230 231 234 236 237 239 240 242 242 242 241 239 237 235 234 232 232 233 233 234 235 236 236 237 240 244 248 253 258 262 262 262 262 260 258 258 260 263 265 272 278 280 282 285 288 293 297 298 300 303 301 298 298 292 285 282 284 286 286 287 289 290 293 298 303
208 209 210 211 210 210 211 210 210 210 211 214 217 219 221 222 223 225 226 228 230 231 233 234 235 236 237 239 240 239 238 237 236 235 235 234 234 235 236 236 238 239 239 240 243 246 249 253 258 260 260 259 257 254 256 259 261 263 267 274 279 282 286 289 290 290 291 291 295 301 300 296 292 288 285 285 288 290 291 292 295 294 297 305 311
209 211 212 214 215 216 217 218 218 217 217 218 219 219 220 221 223 225 227 228 230 231 233 234 235 235 236 237 238 237 235 234 234 234 234 234 235 236 237 238 240 241 241 242 244 246 249 254 258 259 259 257 252 252 256 260 262 266 270 276 281 284 286 289 291 291 291 293 299 300 293 286 284 284 285 288 290 291 293 297 300 300 304 311 316
210 213 214 215 216 218 219 221 222 223 224 224 224 224 223 223 223 225 227 229 231 232 233 234 234 234 235 236 237 237 235 233 232 233 232 234 235 236 237 239 240 241 242 243 245 247 250 254 258 260 259 255 249 251 257 261 264 269 274 279 281 282 285 288 290 291 294 298 299 290 280 276 278 281 283 287 288 288 292 300 304 306 311 316 318
210 213 213 214 216 218 220 222 224 226 228 228 229 229 229 229 228 229 230 231 232 233 233 234 234 234 235 236 236 236 234 232 232 232 232 233 235 237 238 239 240 241 243 244 245 248 251 255 258 260 261 256 251 253 258 263 268 273 277 281 281 282 286 287 288 292 297 296 289 281 276 274 275 278 283 285 285 287 295 306 312 314 318 320 320
203 205 207 210 214 217 220 222 225 227 229 229 230 231 232 232 233 233 233 234 234 234 234 235 235 235 236 237 236 236 234 232 231 232 232 233 235 237 238 239 240 241 243 245 246 248 252 255 258 260 262 259 255 256 261 266 271 275 278 281 283 285 287 288 292 297 295 287 280 278 278 276 275 280 285 289 292 298 306 314 317 318 320 320 320
198 200 203 207 211 215 218 221 223 225 227 228 230 231 232 233 234 234 235 236 236 236 236 236 236 236 237 237 237 236 235 233 232 232 232 233 235 236 238 240 241 242 243 245 247 249 253 256 258 260 262 261 259 260 264 269 273 276 279 282 286 287 288 290 294 293 285 279 278 279 278 277 280 287 295 300 306 312 316 318 319 318 318 318 318
197 198 201 203 206 209 213 217 219 221 224 226 228 229 231 232 233 234 235 236 237 237 238 238 238 237 237 237 237 236 235 234 233 232 232 233 235 237 239 240 241 242 244 246 248 251 254 256 258 259 261 262 262 262 265 270 273 277 280 284 287 289 291 292 286 278 275 276 276 275 275 279 286 294 301 307 311 315 317 317 317 316 317 318 319
195 196 197 198 201 206 211 215 218 221 223 225 227 228 230 231 232 233 234 235 237 238 239 240 240 240 239 239 240 239 237 236 235 235 235 235 236 238 240 241 242 243 245 248 250 253 256 257 259 260 261 263 263 264 267 271 274 277 281 285 288 291 293 291 284 278 279 277 272 272 276 283 291 297 301 306 309 311 313 314 314 315 316 318 319
195 195 195 197 202 209 213 218 222 224 227 228 228 229 230 231 232 233 234 235 236 237 238 239 241 241 241 241 241 242 241 240 239 238 238 238 239 240 241 242 243 245 247 249 251 253 256 258 260 261 262 264 265 267 269 271 274 277 281 285 290 292 291 292 292 291 289 283 277 280 285 289 294 297 300 305 307 309 312 314 315 316 317 319 320
196 197 200 205 210 213 213 217 222 224 228 231 232 234 235 236 237 237 237 238 238 238 239 241 242 243 244 243 243 243 243 243 243 242 242 242 242 243 244 245 246 247 249 250 251 253 255 258 259 261 262 264 266 267 269 271 274 277 281 284 287 286 285 290 296 297 295 292 290 291 292 295 297 300 304 308 310 312 314 316 317 318 319 320 321
199 204 208 208 209 211 212 215 217 219 223 227 232 234 236 238 239 239 239 240 241 241 242 243 245 246 246 247 246 246 246 245 245 245 245 244 244 244 245 247 248 249 250 252 253 254 256 258 259 261 262 264 266 267 269 272 274 278 280 282 282 280 281 288 294 295 294 296 297 298 300 301 303 307 310 313 315 317 318 319 320 321 321 321 321
203 211 213 209 209 214 217 217 216 216 219 223 229 231 233 235 237 237 236 237 238 240 240 242 243 244 246 248 249 248 249 249 249 248 248 248 247 247 247 248 249 250 252 254 255 256 257 259 260 261 263 264 266 268 270 273 276 278 280 281 282 282 284 289 293 294 296 299 302 305 307 308 311 313 315 317 318 319 320 321 322 323 323 323 323
212 218 219 219 222 223 220 217 216 217 217 220 228 234 237 241 243 242 240 238 238 238 238 238 240 242 245 247 247 248 249 250 253 254 254 253 252 251 250 250 251 252 253 254 255 256 258 259 260 262 264 266 268 270 271 273 275 276 277 279 283 285 287 290 292 293 297 302 305 308 310 312 314 315 316 318 320 320 322 323 323 324 325 325 325
217 218 217 220 221 218 218 219 221 224 227 229 233 235 240 248 253 250 246 242 239 238 237 236 238 240 241 243 245 246 248 251 255 257 258 258 259 258 257 255 254 253 253 254 254 256 257 258 260 262 264 265 267 269 270 271 272 272 273 276 281 286 288 289 290 293 298 303 306 308 311 312 313 315 316 319 320 322 323 323 324 325 326 326 326
206 207 207 210 211 213 220 225 228 232 238 243 245 241 240 245 251 252 249 245 242 240 239 239 239 240 242 243 246 249 253 255 257 258 260 263 264 264 263 260 257 255 254 254 254 255 256 258 260 261 263 263 264 265 266 267 268 270 272 275 280 284 286 286 289 294 299 302 304 307 309 310 311 313 316 318 321 322 323 323 324 326 327 327 326
199 202 205 209 215 221 229 235 239 243 246 250 254 251 245 244 247 249 249 247 244 242 241 241 242 243 244 246 248 251 254 256 258 260 263 265 266 267 267 264 260 257 255 254 255 256 257 258 259 260 260 259 258 256 256 258 262 268 273 276 279 281 282 285 289 294 297 300 303 305 307 308 310 312 316 319 321 322 322 323 325 326 326 326 326
203 209 216 223 230 237 242 246 248 250 251 253 255 254 251 247 247 248 248 247 245 244 243 243 244 245 246 247 249 250 251 252 254 256 259 262 265 267 268 268 265 260 256 253 253 254 256 257 257 257 257 257 254 252 255 259 265 270 274 275 276 278 281 285 289 293 296 299 302 303 304 306 310 314 317 320 320 321 322 323 324 325 325 326 326
211 220 230 237 243 246 248 248 247 247 248 248 248 248 248 247 247 247 246 245 244 243 242 242 243 244 245 246 247 248 248 249 251 254 256 259 261 264 268 269 266 260 256 255 254 253 254 256 257 257 257 257 257 258 259 262 265 269 272 275 277 279 283 286 290 293 296 298 300 301 303 307 311 315 317 318 319 320 321 323 324 324 324 325 325
219 228 237 243 246 247 247 245 244 242 241 240 242 244 245 245 246 246 246 246 245 243 242 242 243 244 246 247 248 250 251 252 253 255 257 258 259 262 265 264 261 258 258 259 259 257 254 254 256 258 258 259 259 255 252 254 258 264 271 276 280 282 284 288 291 294 296 298 299 301 305 309 312 314 315 316 317 319 321 322 322 323 324 324 325
223 230 237 244 246 245 243 242 240 238 238 240 243 245 245 245 246 247 247 247 246 244 243 243 244 245 247 250 253 255 256 257 258 258 258 258 258 259 259 259 258 258 256 252 246 241 238 243 253 259 261 261 260 253 248 250 256 264 273 278 282 284 286 289 293 295 297 298 299 303 307 310 312 313 314 316 317 319 320 320 321 322 323 324 325
223 229 241 251 249 244 243 242 241 240 241 243 244 244 245 246 248 249 249 249 247 245 244 243 244 246 250 254 258 260 260 258 258 258 256 253 252 253 257 262 264 256 242 232 226 223 229 241 253 260 259 257 255 251 250 254 260 267 275 279 282 285 288 291 294 295 296 298 301 305 308 310 311 312 313 315 317 318 319 319 320 322 324 325 326
226 235 250 259 253 245 246 246 246 245 243 243 243 244 245 248 250 252 252 250 247 245 243 243 245 248 252 256 259 259 258 257 258 258 256 252 252 253 256 258 254 245 236 227 222 227 239 249 253 253 252 250 250 250 253 259 265 271 276 280 283 287 290 292 293 294 296 299 302 306 308 309 310 311 313 315 316 316 316 318 320 322 324 325 326
231 240 252 258 253 249 247 248 250 250 248 246 246 246 247 250 252 254 254 252 249 247 245 245 247 250 253 255 256 254 252 252 254 251 244 243 250 255 252 244 241 241 241 238 235 239 246 248 246 246 249 251 254 257 261 265 270 275 278 281 284 286 288 290 292 295 298 301 304 306 308 308 309 311 312 313 314 314 315 317 319 322 325 326 326
231 234 240 247 250 250 247 246 250 253 252 252 251 250 250 251 252 253 255 255 252 249 247 247 250 254 255 256 254 247 237 235 241 244 240 242 252 257 252 246 244 245 248 249 248 246 245 243 242 246 252 257 261 265 268 271 274 277 279 282 285 287 289 292 295 298 301 303 305 306 307 307 308 310 311 311 312 313 315 317 320 323 325 326 327
225 227 231 236 240 243 243 243 246 249 251 253 253 251 251 251 250 251 254 254 253 253 252 252 255 258 258 258 257 250 237 231 236 243 247 250 254 256 253 249 246 245 245 247 247 247 247 246 248 252 257 262 266 269 272 275 277 279 283 285 288 290 292 295 297 300 302 303 304 304 305 305 306 308 308 309 311 312 314 317 321 323 325 326 327
215 221 227 233 237 240 242 243 245 247 249 250 251 251 252 252 251 251 252 251 252 252 248 246 252 260 261 257 255 254 250 246 245 246 248 249 249 250 250 249 245 243 243 244 246 249 252 253 255 257 260 264 268 271 274 277 280 283 286 288 290 292 294 296 298 300 301 301 302 302 302 303 304 305 305 307 308 310 312 317 320 323 324 325 326
213 217 223 231 236 240 243 246 249 251 252 252 252 252 252 253 254 255 254 253 253 248 241 242 251 262 265 260 253 249 252 254 250 246 244 243 242 242 243 245 245 245 247 249 251 253 254 255 256 258 260 264 269 273 276 280 283 285 287 289 291 293 295 297 298 298 298 299 299 299 299 300 300 301 302 303 306 308 311 316 319 321 322 323 325
221 222 225 230 235 239 243 246 249 252 256 258 257 255 253 251 253 254 254 253 250 245 243 245 247 249 254 258 258 255 252 249 243 238 236 238 241 242 243 246 248 251 253 256 256 255 255 257 258 261 265 269 274 277 281 284 286 287 289 291 292 294 295 296 296 296 296 296 296 296 296 296 296 297 298 301 304 307 310 314 318 319 319 320 322
231 231 232 236 239 242 245 247 250 253 258 263 266 265 260 253 250 250 251 250 246 243 245 246 243 242 247 254 257 256 252 243 237 235 237 241 247 249 249 252 256 258 258 257 256 254 255 258 261 266 270 275 278 280 283 284 286 288 290 291 293 293 294 294 294 293 293 293 293 292 292 291 292 293 295 297 300 303 307 311 315 315 315 317 319
246 244 244 246 249 250 251 253 254 257 261 267 272 275 272 264 257 251 247 245 242 241 244 247 245 243 244 246 248 252 253 248 244 243 244 246 251 254 254 255 257 258 256 254 254 255 258 261 265 269 273 275 278 280 282 284 286 288 289 290 291 291 291 291 291 290 290 289 289 288 288 288 289 290 291 294 297 299 302 307 310 311 311 313 317
262 259 257 257 258 259 259 259 259 261 265 269 275 280 279 273 264 251 240 239 240 239 237 239 243 247 249 250 252 254 256 255 255 256 257 258 261 263 261 256 253 251 250 250 252 255 258 262 266 269 272 274 277 279 281 283 285 286 287 288 288 288 289 289 289 289 288 286 285 284 284 285 287 289 292 295 297 297 298 302 306 307 308 311 315
266 265 264 262 262 262 262 261 261 262 265 268 273 280 281 275 264 243 227 227 232 232 229 231 238 245 249 251 251 251 253 254 256 259 262 263 263 262 259 254 251 249 249 250 253 256 260 263 267 270 272 275 277 279 281 283 284 284 285 286 286 287 287 287 287 287 285 283 282 282 283 283 285 288 291 294 296 296 298 301 304 305 307 310 313
266 264 264 264 263 262 261 261 260 260 262 265 270 277 280 273 261 242 227 222 225 229 234 240 245 247 249 251 252 253 254 254 255 257 259 259 257 256 255 253 252 252 254 257 260 263 266 269 271 274 276 279 280 282 282 283 283 284 285 285 285 285 284 283 283 282 282 281 282 283 283 282 284 286 288 289 291 294 298 301 302 302 305 308 311
264 263 263 263 263 262 262 262 261 260 261 264 269 276 278 272 258 243 233 227 226 231 238 244 247 247 246 247 247 247 248 249 250 250 250 248 247 248 250 252 254 256 260 263 266 269 273 275 278 280 282 282 283 283 284 284 284 285 285 285 285 284 282 280 279 280 281 283 284 283 282 282 284 286 287 287 289 293 296 297 297 299 302 305 308
261 261 262 263 263 264 265 266 265 264 265 267 267 266 267 266 256 242 235 233 234 238 242 244 242 236 232 232 234 236 239 241 242 241 240 241 242 244 246 250 254 258 262 266 270 273 276 278 280 282 283 284 284 285 285 286 286 286 286 285 285 283 280 278 277 279 281 282 282 282 281 283 285 287 288 288 289 291 291 292 293 295 298 301 304
254 256 257 258 259 261 263 265 267 268 269 269 264 258 254 252 246 238 233 231 230 232 232 230 226 221 219 219 223 228 230 231 233 234 236 238 241 245 249 254 259 263 266 269 272 274 276 278 280 282 283 284 285 286 286 287 287 286 285 283 282 280 277 275 275 276 278 279 279 279 279 280 283 286 288 289 290 290 290 289 289 291 294 297 299
Height
3181 3184 3186 3188 3191 3194 3196 3198 3200 3202 3204 3206 3208 3210 3212 3214 3216 3218 3220 3221 3222 3223 3224 3226 3227 3228 3229 3230 3231 3232 3233 3234 3235 3236 3237 3239 3240 3242 3243 3244 3246 3247 3248 3249 3250 3251 3252 3253 3254 3254 3254 3255 3255 3256 3256 3257 3257 3257 3257 3257 3257 3257 3257 3257 3257 3258 3258 3256 3255 3254 3253 3252 3252 3251 3250 3249 3248 3247 3246 3246 3245 3244 3243 3242 3241
3179 3181 3183 3186 3188 3191 3194 3196 3198 3200 3202 3204 3206 3208 3210 3212 3214 3216 3218 3219 3220 3222 3223 3224 3225 3226 3227 3228 3229 3230 3231 3232 3233 3234 3235 3237 3238 3240 3241 3242 3244 3245 3246 3247 3248 3249 3250 3251 3252 3253 3253 3254 3254 3255 3255 3256 3256 3256 3256 3256 3257 3257 3256 3256 3255 3256 3256 3255 3254 3253 3252 3251 3251 3250 3249 3248 3247 3246 3246 3245 3244 3243 3242 3240 3239
3176 3179 3181 3184 3186 3189 3191 3193 3196 3197 3200 3202 3204 3206 3208 3210 3212 3213 3216 3217 3219 3220 3221 3222 3224 3224 3225 3226 3227 3228 3229 3230 3230 3231 3233 3234 3236 3237 3239 3240 3241 3243 3244 3246 3247 3247 3248 3250 3251 3251 3252 3252 3253 3254 3254 3255 3255 3255 3255 3255 3255 3255 3255 3254 3253 3253 3253 3253 3253 3252 3251 3250 3249 3249 3248 3247 3246 3245 3244 3244 3242 3241 3240 3238 3236
3173 3176 3178 3181 3183 3186 3188 3191 3193 3195 3197 3199 3202 3204 3206 3207 3209 3211 3213 3215 3216 3218 3219 3221 3222 3222 3224 3225 3226 3227 3227 3228 3229 3230 3231 3232 3234 3235 3236 3238 3239 3241 3242 3244 3245 3245 3247 3248 3249 3249 3250 3251 3252 3253 3253 3253 3253 3254 3254 3254 3254 3253 3253 3252 3251 3250 3250 3250 3250 3250 3249 3248 3248 3248 3247 3245 3244 3243 3242 3241 3240 3238 3237 3235 3233
3170 3173 3175 3178 3180 3183 3185 3188 3190 3192 3195 3197 3199 3201 3203 3205 3207 3209 3211 3213 3214 3216 3217 3218 3219 3221 3222 3223 3224 3225 3226 3227 3227 3228 3229 3230 3232 3233 3234 3235 3237 3238 3240 3241 3242 3243 3245 3246 3247 3247 3248 3249 3251 3251 3251 3251 3252 3252 3252 3252 3252 3251 3250 3250 3249 3248 3247 3247 3248 3248 3247 3247 3246 3246 3245 3244 3242 3241 3240 3239 3238 3235 3234 3232 3230
3168 3170 3172 3174 3177 3179 3182 3185 3187 3190 3192 3195 3197 3199 3201 3203 3205 3207 3209 3210 3212 3213 3215 3216 3217 3219 3220 3222 3223 3223 3224 3225 3225 3226 3227 3228 3229 3231 3232 3234 3235 3236 3238 3239 3240 3241 3243 3244 3245 3245 3246 3248 3249 3249 3249 3249 3249 3250 3250 3250 3250 3249 3248 3247 3246 3245 3244 3244 3245 3245 3245 3245 3243 3243 3243 3242 3240 3239 3238 3237 3235 3233 3232 3229 3227
3165 3168 3170 3172 3174 3176 3179 3182 3185 3188 3190 3192 3194 3196 3198 3200 3202 3204 3206 3208 3210 3211 3212 3214 3215 3217 3219 3220 3221 3222 3222 3223 3224 3225 3226 3226 3228 3229 3230 3232 3233 3235 3236 3237 3238 3239 3240 3242 3242 3243 3245 3246 3247 3247 3247 3248 3247 3248 3248 3248 3247 3247 3246 3245 3243 3242 3241 3241 3241 3242 3242 3242 3241 3241 3240 3239 3238 3236 3235 3233 3232 3231 3228 3225 3223
3163 3165 3167 3169 3171 3174 3177 3179 3182 3185 3187 3189 3192 3193 3196 3198 3200 3202 3204 3205 3207 3209 3210 3212 3213 3215 3216 3217 3219 3219 3220 3221 3222 3223 3224 3225 3226 3228 3229 3230 3231 3233 3234 3235 3236 3237 3238 3240 3240 3242 3243 3244 3245 3245 3246 3246 3246 3246 3246 3246 3245 3244 3243 3242 3241 3239 3238 3238 3238 3239 3239 3239 3238 3238 3238 3236 3235 3234 3232 3229 3227 3226 3223 3220 3218
3160 3163 3164 3166 3169 3172 3175 3177 3180 3182 3184 3186 3188 3191 3193 3195 3197 3199 3201 3203 3205 3206 3208 3209 3211 3212 3214 3215 3216 3217 3218 3219 3220 3222 3223 3224 3225 3226 3227 3228 3230 3231 3232 3233 3234 3235 3237 3237 3238 3240 3241 3242 3243 3243 3244 3244 3244 3244 3244 3243 3243 3242 3241 3240 3239 3237 3236 3235 3235 3235 3236 3236 3236 3235 3235 3234 3233 3231 3229 3226 3222 3220 3218 3215 3214
3158 3160 3162 3164 3167 3170 3172 3175 3177 3179 3181 3183 3186 3188 3190 3192 3194 3197 3199 3201 3202 3203 3205 3206 3208 3209 3211 3212 3213 3214 3216 3217 3219 3220 3221 3223 3224 3225 3225 3227 3228 3229 3230 3231 3232 3233 3235 3235 3236 3238 3239 3240 3241 3241 3242 3242 3242 3242 3242 3241 3240 3239 3238 3238 3236 3235 3234 3232 3232 3232 3233 3233 3234 3233 3233 3232 3231 3228 3225 3221 3218 3217 3215 3212 3209
3155 3158 3160 3163 3165 3168 3170 3172 3174 3176 3178 3180 3183 3185 3187 3189 3192 3194 3196 3198 3199 3201 3202 3203 3205 3207 3208 3209 3211 3212 3214 3216 3217 3218 3219 3221 3222 3223 3224 3225 3225 3226 3228 3229 3230 3231 3232 3233 3234 3235 3236 3237 3238 3239 3239 3239 3239 3239 3239 3239 3237 3236 3236 3235 3234 3233 3231 3229 3230 3230 3231 3231 3232 3232 3231 3229 3227 3223 3219 3215 3214 3214 3212 3208 3205
3153 3155 3158 3160 3163 3165 3167 3169 3171 3173 3175 3177 3180 3182 3184 3186 3188 3191 3193 3195 3196 3198 3199 3200 3202 3204 3205 3206 3208 3209 3211 3213 3215 3216 3217 3219 3220 3221 3221 3222 3223 3224 3225 3226 3228 3229 3230 3231 3231 3232 3234 3235 3235 3236 3236 3237 3237 3236 3236 3236 3235 3234 3233 3232 3232 3230 3228 3227 3228 3230 3230 3229 3229 3229 3227 3224 3221 3217 3213 3211 3210 3210 3208 3204 3202
3151 3153 3155 3158 3160 3162 3164 3166 3168 3170 3172 3175 3177 3179 3181 3183 3185 3187 3189 3192 3193 3194 3196 3197 3199 3201 3202 3203 3205 3207 3209 3211 3213 3214 3215 3216 3217 3218 3219 3220 3220 3222 3223 3224 3225 3226 3227 3228 3229 3230 3231 3232 3232 3232 3233 3234 3234 3234 3234 3233 3232 3231 3230 3230 3229 3227 3226 3226 3228 3230 3230 3228 3226 3225 3222 3219 3216 3212 3209 3207 3206 3205 3203 3200 3198
3149 3151 3153 3155 3158 3160 3162 3164 3166 3168 3170 3172 3174 3176 3178 3180 3182 3184 3186 3188 3189 3191 3192 3194 3196 3198 3199 3201 3202 3204 3206 3208 3210 3211 3213 3214 3215 3216 3216 3217 3218 3219 3220 3221 3222 3223 3224 3225 3225 3227 3228 3228 3229 3229 3230 3230 3231 3231 3231 3231 3230 3229 3228 3227 3226 3225 3225 3226 3226 3227 3228 3227 3225 3221 3217 3214 3212 3209 3207 3205 3202 3200 3199 3197 3195
3146 3149 3151 3153 3156 3158 3160 3162 3164 3166 3168 3170 3171 3173 3175 3177 3179 3181 3183 3184 3186 3187 3189 3191 3193 3194 3196 3198 3199 3200 3203 3205 3207 3208 3210 3211 3212 3213 3213 3214 3215 3216 3217 3218 3219 3220 3221 3221 3222 3224 3225 3225 3226 3226 3227 3227 3227 3228 3228 3228 3228 3226 3225 3225 3224 3224 3224 3225 3224 3224 3224 3224 3222 3217 3213 3209 3207 3206 3204 3202 3199 3196 3194 3193 3191
3144 3147 3149 3151 3154 3156 3158 3160 3162 3164 3166 3167 3169 3170 3172 3174 3176 3178 3179 3181 3182 3184 3186 3188 3189 3191 3193 3194 3195 3197 3199 3202 3203 3205 3207 3208 3209 3209 3210 3211 3212 3213 3214 3215 3216 3217 3218 3218 3219 3220 3221 3222 3223 3223 3223 3224 3224 3224 3225 3226 3226 3224 3223 3223 3223 3223 3222 3222 3222 3222 3221 3220 3217 3213 3210 3206 3203 3201 3199 3197 3196 3192 3189 3186 3184
3142 3144 3146 3149 3151 3153 3155 3158 3160 3162 3164 3165 3166 3168 3170 3172 3174 3175 3177 3178 3179 3181 3183 3185 3186 3188 3190 3191 3192 3194 3196 3198 3200 3202 3203 3204 3205 3205 3206 3208 3208 3209 3211 3212 3213 3214 3214 3215 3216 3217 3217 3219 3220 3220 3220 3220 3220 3220 3221 3223 3224 3222 3220 3220 3221 3221 3220 3220 3220 3219 3217 3214 3210 3208 3207 3204 3200 3197 3195 3193 3192 3189 3185 3181 3177
3139 3141 3144 3146 3148 3150 3153 3155 3157 3159 3161 3162 3164 3166 3168 3170 3172 3173 3174 3176 3177 3179 3181 3182 3184 3185 3186 3187 3189 3191 3193 3195 3196 3198 3199 3200 3201 3202 3203 3204 3204 3205 3207 3208 3209 3210 3211 3212 3212 3213 3214 3215 3216 3216 3216 3216 3216 3216 3217 3219 3220 3220 3218 3217 3217 3217 3217 3217 3217 3215 3211 3209 3207 3205 3204 3202 3198 3195 3192 3191 3189 3185 3181 3178 3173
3136 3138 3141 3143 3145 3147 3149 3151 3154 3156 3158 3160 3162 3164 3166 3168 3169 3171 3172 3173 3175 3177 3178 3179 3180 3182 3183 3185 3186 3188 3190 3191 3192 3194 3195 3196 3197 3198 3199 3199 3200 3202 3203 3205 3206 3206 3207 3208 3209 3209 3210 3211 3212 3212 3212 3212 3212 3212 3212 3213 3215 3216 3215 3213 3213 3214 3215 3214 3212 3210 3207 3206 3204 3202 3201 3199 3196 3193 3190 3187 3184 3180 3176 3173 3169
3134 3136 3138 3140 3142 3144 3146 3148 3151 3153 3155 3157 3159 3161 3163 3165 3166 3167 3169 3170 3172 3174 3175 3176 3178 3179 3181 3182 3183 3185 3186 3188 3189 3190 3191 3192 3193 3194 3195 3195 3196 3198 3200 3201 3202 3203 3203 3204 3205 3205 3206 3207 3208 3208 3208 3208 3208 3208 3207 3207 3209 3211 3210 3209 3209 3210 3210 3208 3206 3205 3203 3202 3200 3199 3198 3196 3193 3190 3187 3184 3180 3176 3173 3169 3166
3131 3133 3135 3137 3140 3142 3144 3146 3148 3150 3152 3153 3155 3157 3159 3161 3162 3164 3165 3167 3169 3170 3172 3173 3175 3176 3178 3179 3180 3182 3183 3184 3186 3187 3188 3189 3190 3190 3191 3192 3193 3195 3196 3196 3197 3198 3199 3200 3201 3202 3202 3203 3203 3204 3204 3204 3204 3203 3201 3201 3202 3203 3204 3206 3207 3207 3205 3203 3202 3200 3198 3197 3196 3194 3193 3191 3188 3186 3184 3180 3176 3173 3170 3166 3162
3129 3131 3133 3135 3137 3139 3141 3143 3145 3147 3148 3150 3151 3153 3155 3156 3158 3160 3162 3163 3165 3166 3168 3169 3171 3173 3174 3176 3177 3178 3180 3181 3182 3183 3184 3185 3186 3187 3187 3189 3190 3191 3192 3192 3193 3194 3195 3197 3197 3198 3198 3199 3199 3200 3200 3200 3199 3198 3197 3196 3196 3195 3197 3201 3204 3204 3202 3200 3198 3196 3194 3193 3192 3190 3188 3186 3184 3182 3180 3177 3174 3170 3166 3163 3159
3127 3129 3132 3134 3136 3137 3139 3141 3142 3144 3145 3146 3148 3149 3151 3153 3154 3156 3157 3159 3161 3162 3164 3165 3167 3169 3170 3172 3173 3174 3176 3178 3179 3180 3181 3182 3183 3184 3184 3185 3187 3187 3188 3188 3190 3191 3191 3192 3193 3194 3194 3195 3195 3196 3196 3195 3195 3194 3192 3191 3190 3189 3190 3192 3195 3197 3197 3196 3193 3192 3190 3189 3188 3186 3185 3183 3180 3178 3177 3175 3172 3167 3162 3159 3156
3125 3128 3130 3133 3134 3136 3137 3139 3140 3141 3143 3144 3145 3146 3148 3149 3151 3152 3154 3155 3157 3158 3160 3161 3162 3164 3166 3167 3169 3171 3172 3174 3175 3177 3178 3179 3180 3181 3181 3182 3183 3184 3184 3185 3186 3187 3187 3188 3189 3190 3190 3191 3191 3192 3192 3191 3191 3190 3189 3187 3185 3183 3183 3184 3185 3187 3189 3189 3188 3187 3186 3184 3184 3183 3181 3179 3177 3174 3172 3171 3168 3163 3158 3154 3151
3124 3127 3129 3131 3133 3134 3135 3137 3138 3139 3140 3142 3143 3144 3146 3147 3148 3149 3151 3152 3153 3154 3156 3157 3159 3160 3162 3163 3165 3166 3168 3170 3171 3172 3174 3175 3176 3177 3178 3178 3179 3180 3180 3181 3181 3182 3183 3184 3185 3186 3186 3187 3188 3188 3188 3187 3186 3186 3185 3183 3182 3179 3178 3178 3179 3180 3181 3182 3182 3182 3181 3180 3179 3178 3176 3175 3172 3168 3166 3164 3162 3158 3153 3149 3146
3122 3125 3127 3129 3131 3133 3134 3135 3136 3137 3138 3140 3141 3142 3144 3145 3146 3147 3148 3149 3150 3151 3153 3154 3155 3157 3158 3160 3161 3163 3164 3165 3167 3168 3169 3170 3172 3173 3173 3174 3175 3175 3176 3176 3177 3179 3180 3180 3181 3182 3182 3183 3183 3183 3183 3183 3182 3181 3180 3178 3177 3176 3174 3174 3175 3175 3175 3176 3176 3175 3175 3174 3173 3172 3170 3168 3165 3161 3159 3156 3154 3151 3147 3143 3140
3120 3123 3126 3128 3129 3131 3133 3134 3135 3136 3137 3138 3139 3141 3141 3142 3143 3144 3145 3146 3147 3148 3150 3151 3152 3154 3155 3156 3158 3159 3160 3161 3162 3163 3165 3166 3167 3168 3168 3169 3170 3171 3171 3173 3174 3174 3175 3176 3177 3177 3178 3178 3179 3179 3179 3178 3178 3176 3175 3173 3173 3172 3171 3170 3170 3169 3169 3169 3169 3168 3168 3167 3166 3165 3163 3161 3158 3155 3152 3149 3146 3143 3140 3136 3132
3118 3121 3124 3125 3127 3129 3130 3132 3133 3134 3135 3136 3138 3139 3140 3140 3141 3142 3143 3144 3145 3146 3147 3148 3150 3151 3152 3153 3155 3156 3157 3158 3159 3160 3161 3161 3162 3163 3164 3165 3165 3166 3167 3168 3169 3169 3170 3171 3172 3173 3173 3174 3174 3174 3174 3174 3173 3172 3170 3169 3169 3168 3167 3166 3166 3165 3164 3164 3163 3162 3162 3161 3159 3158 3156 3154 3152 3149 3145 3142 3139 3135 3131 3128 3124
3115 3118 3120 3122 3124 3126 3128 3129 3131 3132 3133 3134 3135 3136 3137 3138 3140 3141 3142 3142 3143 3144 3144 3146 3147 3148 3149 3150 3151 3152 3153 3154 3155 3156 3156 3157 3157 3158 3159 3160 3161 3161 3162 3163 3163 3164 3165 3166 3167 3168 3169 3169 3169 3169 3169 3168 3168 3167 3167 3166 3165 3164 3163 3163 3162 3161 3160 3159 3158 3157 3156 3155 3154 3152 3150 3149 3146 3143 3139 3136 3133 3129 3125 3122 3118
3113 3115 3117 3119 3121 3123 3125 3127 3128 3129 3130 3131 3132 3132 3133 3135 3137 3138 3139 3140 3141 3141 3142 3143 3144 3145 3146 3147 3148 3149 3150 3151 3151 3151 3152 3152 3153 3153 3154 3155 3155 3156 3156 3157 3158 3159 3160 3162 3163 3164 3164 3165 3165 3165 3164 3163 3163 3163 3162 3162 3161 3160 3160 3159 3158 3157 3156 3155 3154 3153 3152 3151 3149 3148 3146 3144 3141 3138 3135 3131 3128 3125 3121 3117 3113
3111 3113 3115 3117 3119 3120 3122 3123 3125 3126 3127 3128 3129 3129 3130 3132 3134 3135 3136 3137 3138 3138 3139 3140 3141 3142 3143 3144 3145 3145 3146 3147 3147 3147 3148 3148 3148 3149 3149 3149 3149 3150 3151 3152 3153 3155 3156 3158 3159 3159 3160 3160 3160 3160 3160 3159 3159 3159 3158 3158 3158 3157 3156 3156 3155 3154 3153 3152 3151 3150 3148 3147 3145 3143 3141 3138 3136 3134 3131 3127 3124 3121 3117 3114 3110
3108 3110 3112 3114 3115 3117 3118 3119 3121 3122 3123 3124 3125 3126 3127 3129 3130 3131 3132 3133 3134 3135 3136 3137 3138 3138 3139 3140 3141 3142 3143 3143 3143 3143 3144 3144 3144 3144 3144 3144 3144 3145 3146 3147 3148 3150 3152 3153 3153 3154 3155 3155 3156 3156 3156 3155 3155 3155 3154 3154 3154 3153 3153 3152 3152 3151 3150 3149 3148 3146 3145 3143 3141 3138 3136 3133 3131 3129 3126 3123 3120 3117 3114 3111 3107
3104 3106 3108 3110 3111 3113 3114 3115 3116 3117 3118 3119 3121 3122 3123 3124 3125 3127 3128 3129 3130 3131 3132 3133 3134 3135 3136 3137 3137 3138 3139 3139 3139 3140 3140 3140 3140 3140 3139 3139 3139 3140 3142 3144 3146 3147 3148 3148 3149 3150 3150 3151 3151 3152 3152 3151 3151 3151 3151 3150 3150 3149 3149 3149 3148 3147 3146 3145 3144 3143 3141 3139 3137 3134 3132 3129 3127 3124 3121 3118 3116 3113 3110 3107 3104
3101 3103 3105 3106 3107 3109 3110 3111 3112 3113 3114 3115 3116 3117 3118 3120 3121 3122 3123 3124 3125 3127 3128 3129 3130 3131 3131 3132 3133 3133 3134 3134 3135 3135 3135 3135 3135 3135 3135 3135 3135 3137 3140 3142 3143 3144 3143 3144 3145 3146 3146 3147 3148 3148 3148 3148 3147 3147 3147 3147 3146 3145 3145 3145 3144 3143 3142 3142 3140 3139 3137 3135 3132 3130 3128 3126 3123 3120 3117 3114 3112 3109 3106 3103 3101
3098 3100 3102 3103 3104 3104 3105 3106 3108 3109 3110 3111 3112 3113 3114 3115 3116 3117 3118 3119 3120 3121 3123 3124 3125 3126 3126 3127 3127 3128 3128 3129 3129 3130 3130 3131 3131 3130 3130 3131 3133 3136 3139 3140 3139 3139 3139 3139 3140 3142 3142 3143 3144 3145 3145 3144 3144 3144 3144 3143 3142 3141 3141 3140 3140 3139 3138 3137 3136 3134 3132 3130 3128 3126 3123 3121 3118 3115 3113 3111 3108 3106 3103 3100 3097
3095 3097 3098 3099 3100 3101 3102 3103 3104 3105 3106 3106 3108 3109 3110 3111 3112 3113 3114 3115 3115 3116 3118 3119 3119 3120 3120 3121 3121 3122 3122 3123 3124 3125 3125 3126 3126 3126 3127 3130 3131 3133 3135 3135 3135 3136 3136 3137 3137 3138 3139 3139 3140 3141 3140 3140 3140 3140 3139 3139 3138 3137 3137 3136 3135 3135 3134 3133 3131 3129 3127 3125 3124 3122 3119 3117 3114 3111 3109 3107 3105 3102 3099 3097 3094
3092 3093 3095 3096 3097 3097 3098 3099 3100 3101 3102 3102 3103 3104 3106 3107 3107 3108 3109 3110 3111 3111 3112 3113 3114 3114 3115 3116 3116 3117 3118 3119 3119 3120 3121 3121 3122 3123 3126 3128 3128 3129 3131 3132 3133 3134 3134 3134 3135 3135 3134 3135 3136 3136 3136 3136 3136 3135 3135 3134 3134 3133 3132 3132 3131 3131 3130 3128 3126 3124 3123 3121 3119 3117 3115 3113 3110 3108 3106 3104 3101 3099 3096 3094 3091
3088 3090 3091 3092 3093 3094 3095 3096 3097 3098 3098 3099 3100 3101 3102 3103 3103 3104 3105 3105 3106 3107 3107 3108 3109 3110 3111 3111 3112 3113 3114 3115 3115 3116 3116 3117 3118 3121 3123 3124 3125 3126 3127 3129 3130 3130 3130 3130 3131 3130 3130 3130 3131 3131 3131 3131 3131 3131 3130 3130 3129 3129 3128 3128 3127 3126 3124 3123 3121 3120 3118 3117 3115 3113 3111 3109 3107 3105 3102 3100 3097 3095 3093 3091 3088
3085 3086 3088 3089 3090 3091 3092 3093 3094 3095 3095 3096 3097 3097 3098 3099 3100 3100 3101 3101 3102 3103 3104 3105 3106 3107 3107 3108 3109 3110 3111 3112 3112 3112 3113 3114 3116 3118 3120 3121 3122 3122 3123 3123 3124 3125 3125 3126 3126 3126 3126 3126 3127 3127 3127 3127 3127 3126 3126 3126 3125 3125 3124 3123 3122 3121 3119 3118 3117 3115 3114 3113 3111 3109 3107 3105 3103 3101 3099 3096 3094 3092 3089 3087 3085
3083 3084 3085 3086 3087 3088 3089 3090 3091 3092 3093 3093 3094 3094 3095 3095 3096 3097 3097 3097 3098 3100 3102 3103 3104 3105 3105 3106 3106 3108 3109 3110 3110 3111 3111 3112 3114 3115 3116 3117 3118 3119 3119 3119 3119 3120 3120 3121 3122 3122 3122 3122 3122 3122 3122 3122 3122 3121 3121 3121 3120 3120 3119 3118 3117 3116 3114 3113 3112 3111 3110 3108 3107 3105 3103 3101 3099 3097 3095 3093 3091 3088 3086 3084 3081
3080 3081 3082 3083 3085 3086 3087 3088 3089 3089 3090 3091 3091 3091 3092 3092 3093 3093 3094 3094 3095 3097 3100 3102 3102 3103 3104 3104 3104 3106 3107 3108 3109 3110 3110 3111 3112 3113 3113 3114 3115 3115 3116 3116 3116 3116 3117 3117 3117 3117 3117 3118 3118 3118 3118 3117 3117 3117 3116 3116 3115 3115 3114 3113 3112 3111 3110 3109 3108 3107 3105 3104 3102 3101 3099 3098 3096 3094 3092 3090 3088 3085 3083 3081 3078
3078 3079 3080 3081 3082 3083 3084 3085 3086 3087 3087 3088 3088 3089 3089 3089 3090 3091 3091 3091 3092 3095 3097 3099 3101 3101 3101 3101 3102 3102 3103 3103 3105 3107 3108 3109 3109 3110 3110 3111 3111 3112 3112 3112 3112 3112 3113 3113 3113 3113 3114 3114 3113 3113 3113 3113 3112 3112 3111 3111 3110 3110 3109 3108 3107 3107 3106 3105 3104 3103 3101 3100 3098 3097 3096 3094 3093 3091 3089 3087 3085 3083 3081 3079 3076
3075 3076 3077 3078 3079 3080 3081 3082 3083 3084 3084 3085 3086 3086 3086 3087 3087 3088 3088 3089 3089 3091 3093 3096 3097 3097 3097 3097 3098 3099 3099 3099 3101 3102 3104 3104 3105 3105 3106 3106 3107 3107 3107 3108 3108 3108 3108 3109 3109 3109 3109 3109 3109 3108 3108 3108 3108 3107 3107 3106 3105 3105 3104 3104 3103 3102 3102 3100 3099 3098 3097 3096 3095 3093 3092 3090 3089 3087 3086 3084 3082 3080 3078 3076 3074
3072 3073 3074 3075 3076 3077 3078 3078 3079 3080 3081 3082 3082 3083 3083 3083 3084 3084 3085 3085 3086 3087 3089 3090 3091 3092 3093 3093 3093 3094 3095 3096 3097 3098 3099 3099 3100 3100 3101 3101 3102 3103 3103 3103 3103 3104 3104 3104 3104 3104 3104 3104 3104 3104 3104 3104 3103 3103 3102 3101 3101 3100 3100 3099 3099 3098 3097 3096 3095 3094 3093 3092 3091 3090 3088 3087 3085 3084 3082 3081 3079 3078 3076 3074 3071
3070 3070 3071 3071 3072 3073 3074 3075 3075 3076 3077 3078 3078 3079 3079 3080 3080 3080 3081 3082 3083 3084 3085 3085 3086 3087 3088 3088 3089 3089 3090 3091 3092 3093 3093 3094 3095 3096 3096 3097 3097 3098 3099 3099 3099 3100 3100 3100 3100 3100 3100 3100 3100 3100 3100 3099 3099 3099 3098 3098 3097 3096 3096 3095 3094 3094 3093 3092 3091 3090 3089 3088 3087 3086 3084 3083 3082 3080 3079 3078 3077 3075 3074 3071 3069
3066 3067 3067 3068 3068 3069 3070 3071 3071 3072 3072 3073 3074 3075 3075 3076 3076 3077 3077 3078 3080 3081 3081 3082 3082 3083 3084 3084 3084 3085 3085 3086 3086 3087 3088 3089 3090 3091 3092 3092 3093 3094 3095 3095 3096 3096 3096 3096 3096 3096 3096 3096 3096 3096 3096 3095 3095 3095 3094 3094 3093 3092 3091 3090 3089 3089 3088 3087 3086 3086 3085 3084 3083 3082 3080 3079 3078 3077 3076 3075 3073 3072 3071 3069 3066
3062 3063 3063 3064 3065 3065 3066 3067 3067 3067 3068 3069 3069 3070 3071 3072 3072 3073 3074 3075 3076 3077 3077 3077 3078 3079 3080 3080 3080 3079 3079 3080 3080 3081 3083 3084 3085 3087 3088 3088 3089 3090 3090 3091 3092 3092 3092 3092 3092 3092 3092 3092 3092 3091 3091 3091 3090 3090 3090 3089 3088 3087 3086 3086 3085 3084 3083 3082 3082 3081 3081 3080 3079 3078 3077 3075 3074 3073 3072 3071 3070 3069 3067 3065 3063
3058 3059 3059 3060 3061 3062 3062 3062 3063 3063 3063 3064 3065 3066 3067 3068 3069 3070 3071 3072 3073 3073 3073 3073 3074 3075 3076 3076 3076 3075 3075 3075 3075 3076 3078 3079 3080 3082 3083 3084 3085 3085 3086 3087 3087 3087 3087 3087 3087 3087 3086 3086 3086 3086 3086 3085 3085 3084 3084 3084 3083 3082 3082 3081 3080 3079 3079 3078 3078 3077 3076 3075 3075 3074 3073 3072 3071 3070 3069 3068 3067 3065 3064 3062 3060
3054 3055 3055 3056 3057 3058 3058 3058 3058 3058 3059 3059 3061 3062 3063 3065 3066 3067 3068 3069 3069 3069 3069 3069 3070 3071 3071 3071 3071 3071 3071 3071 3071 3072 3074 3075 3076 3077 3078 3079 3080 3081 3081 3081 3082 3081 3081 3081 3081 3081 3080 3080 3080 3080 3080 3080 3079 3079 3078 3078 3078 3077 3077 3076 3076 3075 3075 3074 3073 3073 3072 3071 3070 3070 3069 3068 3067 3066 3065 3064 3063 3062 3060 3059 3057
3050 3051 3051 3052 3053 3054 3054 3054 3053 3053 3054 3055 3056 3058 3059 3061 3062 3063 3065 3066 3067 3067 3067 3066 3066 3066 3067 3067 3067 3066 3066 3067 3067 3068 3070 3071 3072 3073 3074 3075 3075 3076 3076 3076 3076 3076 3076 3076 3075 3075 3075 3075 3074 3074 3074 3074 3074 3074 3073 3073 3072 3072 3072 3071 3071 3071 3070 3070 3069 3068 3068 3067 3066 3066 3065 3064 3063 3062 3061 3060 3059 3058 3056 3055 3053
3045 3046 3047 3048 3049 3050 3050 3050 3049 3049 3049 3050 3052 3054 3055 3056 3058 3059 3060 3062 3063 3064 3064 3063 3063 3062 3062 3062 3062 3062 3062 3062 3063 3065 3066 3067 3068 3069 3070 3071 3071 3072 3071 3071 3071 3071 3071 3071 3071 3070 3070 3070 3070 3070 3070 3069 3069 3069 3068 3068 3068 3067 3067 3067 3067 3066 3066 3065 3065 3064 3064 3063 3063 3062 3061 3060 3059 3057 3056 3055 3054 3053 3052 3051 3050